This is the latest recevied weather packets stored in our database for station/object KM4CBK. If no packets are shown the sender has not sent any weather packets the latest 10 day(s).
| Time | Temp. | Humidity | Pressure | Rain* | Wind** | Luminosity | Snow |
|---|---|---|---|---|---|---|---|
| 1778013103 | 27.78° C | 48% | 1011.4 hPa | 0 mm | - | 450 W/m² | - |
| 1778012798 | 28.33° C | 48% | 1011.5 hPa | 0 mm | - | 404 W/m² | - |
| 1778012494 | 27.78° C | 47% | 1011.8 hPa | 0 mm | - | 505 W/m² | - |
| 1778012191 | 28.33° C | 46% | 1012 hPa | 0 mm | - | 542 W/m² | - |
| 1778011889 | 28.33° C | 47% | 1012 hPa | 0 mm | - | 494 W/m² | - |
| 1778011587 | 28.33° C | 46% | 1012.1 hPa | 0 mm | - | 537 W/m² | - |
| 1778011284 | 28.89° C | 47% | 1012.3 hPa | 0 mm | - | 547 W/m² | - |
| 1778010980 | 28.89° C | 45% | 1012 hPa | 0 mm | - | 467 W/m² | - |
| 1778010678 | 28.33° C | 47% | 1012.1 hPa | 0 mm | - | 577 W/m² | - |
| 1778010375 | 28.33° C | 45% | 1012.5 hPa | 0 mm | - | 592 W/m² | - |
| 1778010070 | 28.33° C | 45% | 1012.3 hPa | 0 mm | - | 598 W/m² | - |
| 1778009768 | 27.78° C | 49% | 1012.4 hPa | 0 mm | - | 574 W/m² | - |
| 1778009464 | 28.33° C | 47% | 1012.4 hPa | 0 mm | - | 575 W/m² | - |
| 1778009163 | 28.33° C | 48% | 1012.6 hPa | 0 mm | - | 612 W/m² | - |
| 1778008860 | 28.33° C | 48% | 1012.7 hPa | 0 mm | - | 514 W/m² | - |
| 1778008558 | 27.78° C | 49% | 1012.7 hPa | 0 mm | - | 537 W/m² | - |
| 1778008256 | 27.78° C | 48% | 1012.5 hPa | 0 mm | - | 537 W/m² | - |
| 1778007950 | 28.33° C | 47% | 1012.8 hPa | 0 mm | - | 515 W/m² | - |
| 1778007646 | 28.33° C | 50% | 1012.9 hPa | 0 mm | - | 564 W/m² | - |
| 1778007343 | 27.78° C | 48% | 1012.8 hPa | 0 mm | - | 442 W/m² | - |
| 1778007040 | 27.78° C | 50% | 1012.8 hPa | 0 mm | - | 624 W/m² | - |
| 1778006737 | 27.22° C | 48% | 1013 hPa | 0 mm | - | 595 W/m² | - |
| 1778006433 | 26.67° C | 51% | 1013 hPa | 0 mm | - | 453 W/m² | - |
| 1778006130 | 27.22° C | 48% | 1013.2 hPa | 0 mm | - | 563 W/m² | - |
| 1778005828 | 27.78° C | 48% | 1013.1 hPa | 0 mm | - | 669 W/m² | - |
* Rain latest hour (hover to see other rain measurements)
** Current wind speed in m/s (hover to see current wind gust speed)